Dewpoint
54 54 54 54 55 55 55 55 55 56 56 57 58 58 59 59 58 52 41 52 60 75 74 56 53 52 52 52 50 50 46 40 39 50 48 48 50 54 57 57 57 58 59 62 62
54 53 53 53 55 55 55 56 56 56 56 57 57 58 59 59 46 32 58 71 73 75 58 49 45 47 49 44 44 45 39 37 39 43 45 47 50 54 55 57 58 58 60 61 60
53 53 53 53 54 55 55 55 56 56 56 56 57 58 59 57 37 36 71 71 73 72 49 46 37 36 41 37 41 40 38 40 42 44 46 47 49 52 52 55 57 59 59 60 61
52 52 52 53 53 54 55 55 55 56 56 56 56 58 58 42 30 42 73 74 74 61 42 34 32 36 33 34 37 39 35 39 42 43 44 47 49 50 53 54 57 60 60 60 59
52 53 53 53 54 54 54 54 55 55 56 56 57 57 43 29 26 53 74 72 59 54 45 31 30 32 29 36 36 36 38 41 44 46 45 47 47 50 54 57 58 60 60 59 58
53 54 54 54 54 54 54 55 55 55 55 56 59 57 35 22 22 40 40 52 47 47 33 29 26 28 29 34 37 37 40 42 45 48 50 46 49 52 57 57 59 60 59 58 57
53 54 53 53 54 53 53 54 54 55 55 58 59 45 20 19 18 21 25 29 33 29 26 25 25 25 28 30 41 41 39 42 44 49 49 50 50 50 57 57 59 59 59 58 59
53 53 53 53 53 53 53 53 54 55 59 57 57 37 17 16 18 17 21 21 22 22 22 23 23 23 25 31 44 41 40 36 42 46 48 49 52 53 57 58 59 59 59 58 60
53 53 53 53 53 52 52 52 53 55 58 56 47 33 16 32 13 15 16 15 18 19 22 18 20 23 25 30 38 39 36 47 55 43 50 48 52 54 56 58 60 61 59 58 60
52 52 52 52 52 51 52 52 53 53 54 45 35 21 12 11 14 15 16 13 13 17 19 20 19 20 24 28 34 36 32 38 31 43 43 45 46 55 56 57 59 60 59 59 59
52 52 52 52 51 51 46 19 22 29 25 17 17 7 12 16 21 21 22 22 14 13 15 19 17 18 23 29 33 44 39 34 27 37 39 40 42 53 56 55 56 59 60 59 59
52 52 52 52 51 51 36 21 26 26 22 15 10 11 17 17 18 17 20 21 17 12 12 17 17 20 21 26 29 47 36 34 35 35 36 35 38 42 55 54 54 55 58 59 59
52 52 52 51 51 39 24 22 25 28 25 12 5 2 1 5 10 13 18 21 15 13 9 14 18 17 19 23 26 29 30 31 34 36 38 35 35 36 49 54 52 53 55 57 58
52 52 51 50 42 24 22 22 22 30 18 1 7 7 7 -1 4 8 15 17 16 14 11 10 14 16 17 19 25 26 29 28 27 31 31 38 33 37 43 52 52 50 51 54 57
52 52 51 50 36 23 24 23 23 31 -1 -1 4 14 7 2 -1 3 8 17 15 13 14 10 9 14 18 18 23 26 28 28 29 31 32 37 31 29 44 49 51 48 49 51 54
52 51 51 37 34 28 25 24 24 17 1 -2 5 10 7 11 6 3 -0 14 17 16 14 10 9 10 14 16 20 26 27 29 29 29 27 29 28 28 39 45 50 50 49 49 50
51 50 47 35 28 27 26 22 12 6 1 -3 -1 7 9 8 9 5 14 7 13 17 17 13 7 7 11 15 18 24 25 26 27 26 25 30 28 30 46 38 44 50 50 50 48
50 49 44 29 30 28 27 17 11 4 3 11 8 5 5 7 10 10 7 13 10 13 11 12 8 6 11 15 19 22 25 24 30 25 25 35 31 29 48 36 40 47 50 51 48
49 33 26 31 29 29 24 10 7 5 12 14 13 11 6 -4 11 11 13 9 11 12 17 12 12 5 9 15 17 21 26 25 25 29 32 46 36 30 34 33 33 36 50 51 50
41 31 23 28 28 27 21 19 9 7 15 16 12 7 4 -2 8 12 16 13 10 12 16 16 14 8 5 13 15 17 26 24 25 30 37 35 38 24 34 33 38 39 47 52 52
41 24 28 26 25 23 16 13 9 4 11 11 10 9 14 12 12 14 16 14 11 16 15 13 13 14 9 13 14 16 19 26 23 23 29 34 39 31 36 35 36 42 48 52 52
31 24 29 27 21 18 14 16 24 14 11 10 11 14 15 14 16 16 17 19 15 18 18 18 10 15 10 11 13 15 20 23 25 32 26 30 31 27 33 34 38 44 51 51 50
30 27 28 26 19 15 16 18 16 17 16 13 9 10 14 13 19 19 19 19 16 20 27 25 16 14 16 7 13 14 17 21 27 27 31 31 33 34 34 36 41 47 49 50 50
31 24 26 26 24 22 20 19 17 19 18 19 18 16 14 15 19 20 19 17 15 19 46 37 25 20 11 17 12 16 15 18 21 27 28 28 41 44 35 41 43 47 47 49 51
32 29 29 22 25 22 21 20 17 16 18 18 20 19 18 17 17 14 13 16 22 34 30 27 28 24 17 12 10 10 11 14 19 27 26 30 40 46 37 43 44 45 47 50 49
32 32 31 23 24 22 23 19 18 18 21 19 19 21 28 19 20 19 21 24 28 29 30 29 29 28 20 14 11 9 9 12 17 21 26 28 32 31 41 42 45 44 46 50 51
36 34 30 31 21 20 18 24 22 25 22 21 24 25 25 26 24 25 26 29 29 30 28 30 29 29 24 18 15 14 11 12 16 21 24 27 33 38 38 38 45 45 44 49 50
Lifted_Index
14 14 14 14 13 13 13 12 12 11 11 10 9 8 7 6 4 3 1 1 -2 -4 -4 -2 -1 -2 -2 -2 -2 -2 -2 -2 -2 -1 -1 -0 -1 -1 -2 -2 -2 -2 -2 -1 0
14 14 14 14 13 13 13 12 12 12 11 10 9 9 8 6 4 2 1 0 -2 -4 -3 -1 -1 -1 -1 -1 -1 -2 -2 -2 -2 -1 -0 -0 -0 -1 -1 -2 -2 -2 -1 -0 0
15 15 15 14 14 13 13 13 12 12 11 11 10 9 8 6 3 1 -0 -1 -3 -3 -1 0 1 0 -0 -1 -1 -1 -1 -1 -1 -0 0 0 0 -0 -1 -1 -2 -2 -1 -0 0
15 15 15 15 14 14 13 13 13 12 12 11 10 10 8 5 3 1 -1 -3 -3 -2 -0 2 2 1 -0 -1 -1 -1 -1 -1 -0 0 1 1 0 0 -1 -1 -1 -1 -1 -0 0
16 16 15 15 15 14 14 14 13 13 12 11 10 9 7 5 3 2 -1 -2 -2 -1 1 2 2 1 -0 -1 -1 -1 -1 -1 -0 0 1 1 0 -0 -1 -1 -1 -1 -1 -0 0
16 16 15 15 15 15 14 14 14 13 12 10 9 9 6 4 4 4 2 1 0 1 2 3 3 2 1 -0 -1 -1 -1 -1 -0 -0 -0 -0 -0 -1 -1 -1 -1 -1 -1 -0 -0
16 16 16 16 15 15 15 14 14 13 11 10 9 8 6 5 6 6 5 4 3 3 3 4 4 3 2 0 -1 -2 -2 -1 -1 -0 -1 -1 -1 -1 -1 -2 -2 -1 -1 -1 -1
16 16 16 16 16 16 15 15 14 12 10 9 9 8 7 6 7 7 7 6 5 5 5 5 5 4 3 1 -2 -3 -2 -2 -1 -1 -1 -1 -1 -1 -1 -2 -2 -2 -1 -1 -1
16 16 16 16 16 16 16 15 14 12 10 9 9 8 7 7 7 7 7 6 6 5 5 5 5 4 3 0 -2 -2 -2 -1 -1 -1 -1 -1 -1 -1 -2 -2 -2 -2 -2 -2 -1
15 15 15 16 16 16 16 15 13 11 10 9 9 8 8 7 7 7 7 7 6 5 5 5 4 4 2 0 -1 -1 -1 -1 -1 -1 -1 -2 -2 -2 -2 -2 -2 -2 -2 -2 -2
13 13 14 14 15 15 15 14 13 11 10 10 9 9 9 8 8 7 7 6 6 5 4 4 4 3 2 1 -0 -1 -1 -1 -1 -1 -1 -2 -3 -3 -2 -2 -2 -2 -2 -2 -2
12 12 12 12 13 13 13 13 13 12 11 10 10 10 10 9 8 7 7 6 5 4 4 3 3 3 2 1 -0 -0 -1 -1 -1 -1 -1 -1 -2 -2 -3 -2 -2 -1 -2 -2 -2
11 11 11 11 10 10 11 12 13 12 11 10 10 10 9 9 8 7 7 6 5 4 3 3 3 2 2 1 -0 -0 -1 -1 -1 -1 -1 -1 -1 -1 -2 -2 -2 -1 -1 -1 -1
11 11 11 11 10 9 9 10 11 10 8 8 9 9 9 9 8 7 7 6 5 4 3 3 2 1 1 1 -0 -0 -0 -0 -1 -1 -1 -1 -1 -1 -2 -2 -2 -1 -0 -0 -0
11 11 11 11 10 9 9 9 9 7 5 6 8 9 9 9 8 7 7 6 5 5 4 3 2 1 1 1 0 -0 -0 -0 -1 -1 -1 -1 -1 -1 -2 -2 -2 -1 0 1 1
11 12 12 11 9 9 9 8 7 4 3 4 6 8 8 8 8 7 7 6 5 5 4 3 2 2 1 1 0 -0 -0 -0 -0 -1 -1 -1 -1 -1 -1 -1 -1 -1 0 1 1
11 11 11 10 9 9 9 7 5 3 2 2 4 6 7 7 7 7 6 6 5 5 4 3 2 2 2 1 -0 -0 -0 -0 -1 -1 -1 -1 -1 -1 -1 -1 -1 -1 -0 1 1
11 11 10 10 9 8 8 6 4 2 2 2 4 5 6 6 6 7 6 6 5 4 3 3 2 2 2 1 0 -0 -1 -1 -1 -1 -1 -0 -1 -1 -0 -0 -0 -0 -0 0 1
10 10 9 8 8 7 6 5 4 3 3 3 4 4 4 4 6 6 6 5 5 4 3 2 2 2 2 2 1 -0 -1 -1 -1 -1 -1 -0 -1 -1 -0 -0 -0 0 -0 -0 1
9 9 8 7 7 6 5 4 4 5 5 5 4 4 3 3 4 5 5 5 4 4 3 2 1 1 2 2 2 0 -0 -1 -1 -1 -1 -0 -1 -1 -1 -0 -0 0 -0 -0 0
8 7 7 6 6 5 4 3 4 5 6 6 5 4 4 4 4 5 4 4 4 4 4 2 0 -0 0 2 2 1 -0 -1 -1 -1 -1 -0 -1 -1 -1 -0 0 0 -0 -0 0
7 6 6 5 4 3 2 2 4 5 5 6 6 5 5 4 5 5 4 4 6 6 5 3 1 -0 -0 1 2 1 0 -1 -1 -1 -1 -1 -1 -1 -0 0 0 -0 -0 0 1
6 5 5 4 3 2 1 2 3 4 4 5 5 5 5 5 5 5 4 6 7 7 6 5 3 0 -0 0 1 1 0 -0 -1 -1 -1 -1 -1 -1 -0 0 0 -0 -0 0 1
5 5 4 3 2 2 1 2 2 3 4 4 4 5 5 5 5 5 5 7 8 8 7 6 4 2 0 0 1 1 1 -0 -1 -1 -1 -0 -0 -0 -0 -0 -0 -0 0 1 1
5 4 3 2 2 2 2 2 2 2 3 3 3 3 4 4 5 5 5 6 6 7 6 6 4 3 2 0 -0 0 0 -0 -1 -1 -0 -0 -0 -0 -1 -1 -1 0 1 1 1
5 4 3 3 2 2 2 2 2 2 2 2 2 2 2 2 2 2 3 4 5 6 6 5 5 4 3 1 -0 -0 -0 0 -0 -1 -0 -0 -0 -0 -1 -1 -1 -0 1 1 1
6 5 4 3 3 2 2 2 1 1 2 2 1 1 1 1 0 1 3 4 5 7 7 6 5 4 3 2 0 -1 -0 0 -0 -0 -1 -0 0 -0 -0 -1 -1 -0 0 0 0